Orbital Elements at Epoch 2459000.5 (2020-May-31.0) TDB
Reference: JPL 16 (heliocentric ecliptic J2000)
Element | Value | Uncertainty (1-sigma) | Units |
e | .1015567471626 | 5.0334e-08 | |
a | 2.345846639169662 | 1.8274e-08 | au |
q | 2.107610085153274 | 1.2113e-07 | au |
i | 6.820258888427692 | 4.9999e-06 | deg |
node | 203.4544630857519 | 4.7957e-05 | deg |
peri | 80.78910013459864 | 5.5065e-05 | deg |
M | 340.6589085910394 | 3.0279e-05 | deg |
tp | 2459071.006040859395 (2020-Aug-09.50604086) | 0.00011064 | TDB |
period | 1312.344488358234 3.59 | 1.5335e-05 4.198e-08 | d yr |
n | .2743182168962102 | 3.2054e-09 | deg/d |
Q | 2.58408319318605 | 2.013e-08 | au |
|
| | Orbit Determination Parameters
Additional Information
|